CST,Max TemperatureF,Mean TemperatureF,Min TemperatureF,Max Dew PointF,MeanDew PointF,Min DewpointF,Max Humidity, Mean Humidity, Min Humidity, Max Sea Level PressureIn, Mean Sea Level PressureIn, Min Sea Level PressureIn, Max VisibilityMiles, Mean VisibilityMiles, Min VisibilityMiles, Max Wind SpeedMPH, Mean Wind SpeedMPH, Max Gust SpeedMPH,PrecipitationIn, CloudCover, Events, WindDirDegrees
2014-1-1,-5,-12,-20,-13,-19,-25,79,71,63,30.61,30.57,30.53,10,9,3,9,4,12,T,7,Snow,11
2014-1-2,-5,-15,-25,-12,-21,-31,86,76,66,30.63,30.52,30.21,10,8,1,22,6,26,0.00,1,,181
2014-1-3,29,12,-5,22,9,-10,88,80,71,30.15,29.53,29.25,8,3,0,40,22,48,0.02,8,Fog-Rain-Snow,163
2014-1-4,11,-2,-15,7,-5,-22,91,77,62,30.41,30.04,29.56,10,7,0,39,16,44,0.02,4,Fog-Snow,335
2014-1-5,-13,-16,-20,-22,-26,-28,70,64,57,30.59,30.50,30.42,10,9,2,23,13,26,T,4,,307
2014-1-6,-9,-16,-24,-17,-26,-32,72,64,55,30.51,30.40,30.20,10,10,9,17,11,22,0.00,3,,284
2014-1-7,-3,-8,-13,-12,-14,-20,79,70,61,30.39,30.26,30.16,10,10,9,14,5,15,0.00,4,,285
2014-1-8,2,-9,-21,-4,-16,-25,87,78,68,30.55,30.45,30.26,10,10,9,21,7,29,0.00,2,,189
2014-1-9,24,13,2,16,9,-2,79,75,71,30.22,29.91,29.69,10,9,7,31,21,38,0.00,5,,164
2014-1-10,29,23,16,24,19,14,88,81,74,29.67,29.55,29.46,10,7,3,22,13,35,0.00,2,,190
2014-1-11,29,22,15,22,19,12,92,83,74,29.70,29.60,29.42,10,9,4,21,9,25,0.00,5,,255
2014-1-12,40,33,26,31,26,20,82,76,69,29.62,29.40,29.28,10,10,9,29,12,37,0.00,3,Snow,230
2014-1-13,28,21,14,20,13,8,80,74,67,29.73,29.64,29.53,10,9,1,21,9,26,0.05,5,Snow,301
2014-1-14,20,13,5,18,10,-1,91,81,70,30.30,30.00,29.59,10,5,1,26,16,32,0.03,8,Snow,341
2014-1-15,37,15,-8,29,7,-11,87,79,70,30.25,29.72,29.37,10,6,0,29,16,36,0.04,5,Snow,187
2014-1-16,37,18,-1,30,5,-9,92,80,68,30.22,29.79,29.34,10,2,0,46,28,60,0.05,7,Fog-Snow,344
2014-1-17,18,3,-13,14,-1,-16,88,76,63,30.23,29.92,29.50,10,6,0,22,9,29,0.11,4,Fog-Snow,169
2014-1-18,22,15,8,25,14,4,91,82,73,30.04,29.72,29.40,10,8,1,20,12,25,0.11,5,Snow,167
2014-1-19,31,23,14,23,20,14,96,84,72,29.83,29.62,29.49,10,9,2,20,8,24,0.00,5,,324
2014-1-20,17,-1,-19,12,-7,-23,88,76,63,30.68,30.28,29.86,10,4,0,31,16,36,0.03,6,Snow,1
2014-1-21,9,-6,-21,3,-9,-25,83,74,64,30.63,30.21,30.01,10,6,0,24,11,28,0.05,7,Snow,176
2014-1-22,8,-2,-13,2,-9,-19,86,78,70,30.77,30.37,30.04,10,4,0,36,17,43,0.02,7,Fog-Snow,341
2014-1-23,19,0,-20,8,-13,-26,77,67,56,30.84,30.56,29.91,10,10,2,25,12,31,0.00,2,,219
2014-1-24,35,21,6,31,20,-5,89,78,67,29.89,29.70,29.51,10,7,1,36,16,44,0.04,7,Snow,312
2014-1-25,8,2,-5,3,-5,-11,88,71,54,30.11,29.80,29.45,10,6,1,22,10,26,0.18,5,Snow,119
2014-1-26,15,2,-12,10,-6,-19,88,79,70,30.36,29.84,29.43,10,2,0,41,22,49,0.02,5,Snow,334
2014-1-27,-8,-12,-17,-17,-21,-26,74,66,57,30.57,30.47,30.27,10,9,2,24,10,30,0.00,3,,299
2014-1-28,2,-8,-19,-9,-17,-26,72,64,56,30.46,30.30,30.08,10,10,1,15,10,17,0.00,0,,244
2014-1-29,26,10,-6,16,2,-13,80,71,62,30.05,29.72,29.51,10,10,10,18,11,24,0.00,3,,228
2014-1-30,14,2,-10,7,-4,-10,84,75,65,29.99,29.80,29.64,10,9,2,29,13,33,T,6,Snow,356
2014-1-31,10,0,-11,3,-4,-18,76,70,63,30.11,30.00,29.89,10,10,10,17,11,21,T,3,,184